When you browse on this site, cookies collect data to enhance your experience and personalize the content and advertising you see.
Visit our Privacy Policy to learn more. By continuing to use the site, you agree to this use of cookies and data.
  • In United Kingdom
  • List of Countries
  • For 7 days
  • Water Temperature
  • Weather Map
  • Weather Widgets
  • user-avatar
    Login

    Hourly Weather Wellingborough

    Today, 1 June, Monday

    Time Temperature Precipitation Wind Pressure Humidity
    00:00 +8°C° 0 mm 3 mps 763 mmHg 92%
    01:00 +8°C° 0 mm 3 mps 763 mmHg 93%
    02:00 +8°C° 0 mm 3 mps 763 mmHg 95%
    03:00 +8°C° 0 mm 3 mps 762 mmHg 96%
    04:00 +9°C° 0 mm 3 mps 763 mmHg 95%
    05:00 +10°C° 0 mm 3 mps 763 mmHg 93%
    06:00 +12°C° 0 mm 4 mps 763 mmHg 92%
    07:00 +14°C° 0 mm 4 mps 763 mmHg 86%
    08:00 +15°C° 0 mm 4 mps 763 mmHg 81%
    09:00 +18°C° 0 mm 4 mps 763 mmHg 75%
    10:00 +19°C° 0 mm 4 mps 763 mmHg 72%
    11:00 +20°C° 0 mm 4 mps 762 mmHg 69%
    12:00 +21°C° 0 mm 4 mps 762 mmHg 65%
    13:00 +21°C° 0 mm 4 mps 762 mmHg 66%
    14:00 +21°C° 0 mm 4 mps 762 mmHg 68%
    15:00 +21°C° 0 mm 4 mps 762 mmHg 69%
    16:00 +20°C° 0.1 mm 4 mps 762 mmHg 73%
    17:00 +19°C° 0.1 mm 4 mps 762 mmHg 77%
    18:00 +18°C° 0.1 mm 4 mps 761 mmHg 81%
    19:00 +17°C° 0 mm 4 mps 762 mmHg 84%
    20:00 +14°C° 0 mm 3 mps 762 mmHg 87%
    21:00 +12°C° 0 mm 3 mps 762 mmHg 89%
    22:00 +11°C° 0 mm 3 mps 762 mmHg 91%
    23:00 +10°C° 0 mm 3 mps 762 mmHg 92%

    Tomorrow, 2 June, Tuesday

    Time Temperature Precipitation Wind Pressure Humidity
    00:00 +9°C° 0 mm 2 mps 762 mmHg 94%
    01:00 +9°C° 0 mm 2 mps 762 mmHg 94%
    02:00 +8°C° 0 mm 2 mps 762 mmHg 94%
    03:00 +8°C° 0 mm 2 mps 762 mmHg 94%
    04:00 +9°C° 0 mm 2 mps 762 mmHg 92%
    05:00 +10°C° 0 mm 2 mps 761 mmHg 90%
    06:00 +10°C° 0 mm 2 mps 761 mmHg 88%
    07:00 +13°C° 0 mm 2 mps 761 mmHg 82%
    08:00 +15°C° 0 mm 2 mps 761 mmHg 76%
    09:00 +17°C° 0 mm 2 mps 761 mmHg 71%
    10:00 +17°C° 0 mm 2 mps 760 mmHg 67%
    11:00 +18°C° 0 mm 2 mps 760 mmHg 63%
    12:00 +19°C° 0 mm 2 mps 760 mmHg 60%
    13:00 +20°C° 0 mm 2 mps 759 mmHg 59%
    14:00 +20°C° 0 mm 2 mps 759 mmHg 59%
    15:00 +20°C° 0 mm 2 mps 758 mmHg 58%
    16:00 +20°C° 0 mm 2 mps 758 mmHg 63%
    17:00 +20°C° 0 mm 2 mps 757 mmHg 67%
    18:00 +21°C° 0 mm 1 mps 757 mmHg 72%
    19:00 +19°C° 0 mm 1 mps 757 mmHg 75%
    20:00 +15°C° 0 mm 1 mps 756 mmHg 78%
    21:00 +13°C° 0 mm 1 mps 756 mmHg 82%
    22:00 +13°C° 0 mm 1 mps 756 mmHg 82%
    23:00 +13°C° 0 mm 1 mps 755 mmHg 82%

    Day after tomorrow, 3 June, Wednesday

    Time Temperature Precipitation Wind Pressure Humidity
    00:00 +13°C° 0 mm 2 mps 755 mmHg 83%
    01:00 +13°C° 0 mm 2 mps 754 mmHg 83%
    02:00 +12°C° 0 mm 2 mps 754 mmHg 82%
    03:00 +12°C° 0 mm 2 mps 753 mmHg 82%
    04:00 +13°C° 0 mm 2 mps 753 mmHg 82%
    05:00 +13°C° 0 mm 2 mps 752 mmHg 82%
    06:00 +13°C° 0 mm 3 mps 752 mmHg 82%
    07:00 +13°C° 0 mm 3 mps 752 mmHg 84%
    08:00 +12°C° 0 mm 3 mps 752 mmHg 86%
    09:00 +12°C° 0 mm 3 mps 752 mmHg 88%
    10:00 +12°C° 0.1 mm 4 mps 752 mmHg 88%
    11:00 +12°C° 0.1 mm 4 mps 752 mmHg 89%
    12:00 +10°C° 0.1 mm 5 mps 751 mmHg 89%
    13:00 +10°C° 0.1 mm 5 mps 751 mmHg 89%
    14:00 +10°C° 0.1 mm 5 mps 751 mmHg 88%
    15:00 +10°C° 0.1 mm 5 mps 751 mmHg 88%
    16:00 +12°C° 0 mm 5 mps 751 mmHg 86%
    17:00 +12°C° 0 mm 4 mps 751 mmHg 84%
    18:00 +12°C° 0 mm 4 mps 751 mmHg 82%
    19:00 +12°C° 0 mm 4 mps 751 mmHg 83%
    20:00 +11°C° 0 mm 4 mps 751 mmHg 85%
    21:00 +10°C° 0 mm 3 mps 751 mmHg 86%
    22:00 +10°C° 0 mm 4 mps 751 mmHg 88%
    23:00 +8°C° 0 mm 4 mps 751 mmHg 90%

    4 June, Thursday

    Time Temperature Precipitation Wind Pressure Humidity
    00:00 +8°C° 0 mm 4 mps 751 mmHg 92%
    01:00 +8°C° 0 mm 4 mps 750 mmHg 92%
    02:00 +8°C° 0 mm 5 mps 750 mmHg 92%
    03:00 +8°C° 0 mm 5 mps 750 mmHg 92%
    04:00 +8°C° 0 mm 5 mps 750 mmHg 89%
    05:00 +8°C° 0 mm 5 mps 749 mmHg 86%
    06:00 +8°C° 0 mm 6 mps 749 mmHg 83%
    07:00 +9°C° 0 mm 6 mps 749 mmHg 77%
    08:00 +10°C° 0 mm 6 mps 749 mmHg 72%
    09:00 +10°C° 0 mm 6 mps 749 mmHg 66%
    10:00 +12°C° 0.1 mm 5 mps 748 mmHg 65%
    11:00 +12°C° 0.1 mm 5 mps 748 mmHg 63%
    12:00 +13°C° 0.1 mm 5 mps 748 mmHg 62%
    13:00 +13°C° 0.2 mm 5 mps 748 mmHg 63%
    14:00 +13°C° 0.2 mm 5 mps 747 mmHg 64%
    15:00 +13°C° 0.2 mm 5 mps 747 mmHg 65%
    16:00 +13°C° 0.2 mm 4 mps 747 mmHg 68%
    17:00 +13°C° 0.2 mm 3 mps 746 mmHg 71%
    18:00 +13°C° 0.2 mm 3 mps 746 mmHg 74%
    19:00 +11°C° 0.6 mm 3 mps 746 mmHg 81%
    20:00 +10°C° 0.6 mm 3 mps 747 mmHg 88%
    21:00 +8°C° 0.6 mm 3 mps 747 mmHg 95%
    22:00 +7°C° 0.2 mm 3 mps 747 mmHg 94%
    23:00 +7°C° 0.2 mm 3 mps 746 mmHg 93%

    5 June, Friday

    Time Temperature Precipitation Wind Pressure Humidity
    00:00 +6°C° 0.2 mm 2 mps 746 mmHg 92%
    01:00 +4°C° 0 mm 3 mps 746 mmHg 91%
    02:00 +3°C° 0 mm 3 mps 747 mmHg 91%
    03:00 +3°C° 0 mm 3 mps 747 mmHg 91%
    04:00 +4°C° 0 mm 4 mps 747 mmHg 89%
    05:00 +5°C° 0 mm 4 mps 747 mmHg 88%
    06:00 +6°C° 0 mm 5 mps 747 mmHg 86%
    07:00 +7°C° 0 mm 5 mps 747 mmHg 78%
    08:00 +9°C° 0 mm 5 mps 747 mmHg 71%
    09:00 +12°C° 0 mm 5 mps 747 mmHg 63%
    10:00 +12°C° 0.1 mm 5 mps 747 mmHg 64%
    11:00 +13°C° 0.1 mm 5 mps 747 mmHg 66%
    12:00 +13°C° 0.1 mm 5 mps 746 mmHg 68%
    13:00 +14°C° 0.2 mm 5 mps 746 mmHg 68%
    14:00 +14°C° 0.2 mm 5 mps 746 mmHg 68%
    15:00 +14°C° 0.2 mm 6 mps 746 mmHg 69%
    16:00 +13°C° 0 mm 5 mps 745 mmHg 70%
    17:00 +13°C° 0 mm 4 mps 745 mmHg 72%
    18:00 +12°C° 0 mm 4 mps 745 mmHg 73%
    19:00 +11°C° 0 mm 3 mps 745 mmHg 77%
    20:00 +11°C° 0 mm 3 mps 745 mmHg 81%
    21:00 +10°C° 0 mm 3 mps 745 mmHg 85%
    22:00 +9°C° 0.2 mm 3 mps 745 mmHg 89%
    23:00 +9°C° 0.2 mm 3 mps 745 mmHg 93%

    6 June, Saturday

    Time Temperature Precipitation Wind Pressure Humidity
    00:00 +9°C° 0.2 mm 2 mps 745 mmHg 97%
    01:00 +9°C° 0.2 mm 3 mps 745 mmHg 96%
    02:00 +8°C° 0.2 mm 3 mps 745 mmHg 96%
    03:00 +7°C° 0.2 mm 4 mps 745 mmHg 96%
    04:00 +8°C° 0 mm 4 mps 745 mmHg 95%
    05:00 +8°C° 0 mm 5 mps 745 mmHg 94%
    06:00 +8°C° 0 mm 5 mps 745 mmHg 92%
    07:00 +9°C° 0.2 mm 5 mps 745 mmHg 88%
    08:00 +10°C° 0.2 mm 5 mps 746 mmHg 84%
    09:00 +11°C° 0.2 mm 6 mps 746 mmHg 80%
    10:00 +11°C° 0.2 mm 6 mps 746 mmHg 72%
    11:00 +12°C° 0.2 mm 7 mps 746 mmHg 64%
    12:00 +14°C° 0.2 mm 7 mps 746 mmHg 57%
    13:00 +14°C° 0.1 mm 7 mps 746 mmHg 56%
    14:00 +14°C° 0.1 mm 7 mps 746 mmHg 56%
    15:00 +14°C° 0.1 mm 7 mps 746 mmHg 56%
    16:00 +12°C° 0.1 mm 7 mps 747 mmHg 60%
    17:00 +11°C° 0.1 mm 6 mps 747 mmHg 63%
    18:00 +10°C° 0.1 mm 6 mps 747 mmHg 66%
    19:00 +8°C° 0 mm 6 mps 747 mmHg 68%
    20:00 +7°C° 0 mm 5 mps 748 mmHg 70%
    21:00 +5°C° 0 mm 5 mps 748 mmHg 71%
    22:00 +5°C° 0 mm 5 mps 748 mmHg 73%
    23:00 +5°C° 0 mm 5 mps 748 mmHg 75%
    Show more